M7VJL-13 Weather Reports


time (UTC)temp
C
wind
direction
speed
KPH
gust
KPH
rain 1hr
cm
rain 24hr
cm
rain mn
cm
humidity
%
barometer
mb
20260507124515 13 181 4.8 8.0 0.00 0.00 0.00 61 1015.7
20260507123013 13 360 0.0 8.0 0.00 0.00 0.00 62 1015.7
20260507120012 13 360 0.0 6.4 0.00 0.00 0.00 62 1015.9
20260507114505 13 184 1.6 9.7 0.00 0.00 0.00 61 1015.9
20260507110022 14 187 1.6 8.0 0.00 0.00 0.00 60 1016.0
20260507104504 14 184 3.2 11.3 0.00 0.00 0.00 61 1016.0
20260507103009 13 90 1.6 12.9 0.00 0.00 0.00 63 1016.2
20260507101510 13 355 0.0 4.8 0.00 0.00 0.00 67 1016.3
20260507100025 13 70 1.6 8.0 0.00 0.00 0.00 66 1016.3
20260507094521 12 183 1.6 8.0 0.00 0.00 0.00 68 1016.4
20260507093003 12 186 1.6 11.3 0.00 0.00 0.00 68 1016.3
20260507091509 12 163 0.0 8.0 0.00 0.00 0.00 72 1016.3
20260507090014 11 155 0.0 6.4 0.00 0.00 0.00 71 1016.3
20260507084518 11 180 1.6 9.7 0.00 0.00 0.00 69 1016.3
20260507083023 11 132 1.6 11.3 0.00 0.00 0.00 74 1016.3
20260507080010 10 118 1.6 8.0 0.00 0.00 0.00 78 1016.2
20260507074526 10 158 1.6 9.7 0.00 0.00 0.00 83 1016.2
20260507073021 9 180 3.2 9.7 0.00 0.00 0.00 89 1016.1
20260507071531 8 138 0.0 6.4 0.00 0.00 0.00 94 1016.0
20260507070012 7 104 0.0 1.6 0.00 0.00 0.00 95 1016.0
20260507064512 7 76 0.0 1.6 0.00 0.00 0.00 95 1016.0
20260507063019 6 310 0.0 1.6 0.00 0.00 0.00 95 1016.0
20260507061530 5 309 0.0 0.0 0.00 0.00 0.00 94 1016.0
20260507060025 5 309 0.0 0.0 0.00 0.00 0.00 94 1016.0
20260507054509 5 309 0.0 0.0 0.00 0.00 0.00 94 1016.0
20260507051519 4 307 0.0 0.0 0.00 0.00 0.00 94 1015.9
20260507050026 4 307 0.0 0.0 0.00 0.00 0.00 94 1015.8
20260507044526 3 308 0.0 1.6 0.00 0.00 0.00 93 1015.7
20260507041504 3 309 0.0 0.0 0.00 0.00 0.00 93 1015.7
20260507040004 3 309 0.0 1.6 0.00 0.00 0.00 93 1015.6
20260507033011 3 22 0.0 0.0 0.00 0.00 0.00 92 1015.4
20260507031518 3 22 0.0 0.0 0.00 0.00 0.00 92 1015.4
20260507024504 5 22 0.0 0.0 0.00 0.00 0.00 92 1015.3
20260507023007 5 22 0.0 0.0 0.00 0.00 0.00 92 1015.3
20260507013011 6 22 0.0 0.0 0.00 0.00 0.00 92 1015.3
20260507004520 7 22 0.0 0.0 0.00 0.00 0.00 92 1015.4
20260507001508 7 22 0.0 0.0 0.00 0.00 0.00 92 1015.5
20260507000012 7 21 0.0 1.6 0.00 0.00 0.00 92 1015.5
20260506234535 7 25 0.0 0.0 0.00 0.00 0.00 92 1015.5
20260506233022 7 25 0.0 1.6 0.00 0.00 0.00 92 1015.6
20260506230010 7 32 0.0 1.6 0.00 0.00 0.00 91 1015.5
20260506224524 7 340 0.0 1.6 0.00 0.00 0.00 91 1015.4
20260506223018 7 348 0.0 4.8 0.00 0.00 0.00 91 1015.4
20260506221520 7 44 0.0 3.2 0.00 0.00 0.00 91 1015.4
20260506220033 7 89 0.0 4.8 0.00 0.00 0.00 91 1015.3
20260506214524 7 65 0.0 4.8 0.00 0.00 0.00 91 1015.3
20260506213015 7 318 1.6 4.8 0.00 0.00 0.00 91 1015.3
20260506211522 6 287 0.0 4.8 0.00 0.00 0.00 90 1015.2
20260506210021 6 319 0.0 4.8 0.00 0.00 0.00 90 1015.2
20260506204509 6 304 0.0 11.3 0.00 0.00 0.00 90 1014.9
20260506203013 6 309 0.0 9.7 0.00 0.00 0.00 90 1014.9
20260506201515 6 292 1.6 9.7 0.00 0.00 0.00 90 1014.9
20260506200019 6 64 1.6 11.3 0.00 0.00 0.00 90 1014.8
20260506194531 6 301 3.2 9.7 0.00 0.00 0.00 91 1014.9
20260506193008 6 297 1.6 14.5 0.00 0.00 0.00 91 1014.7
20260506191514 7 214 3.2 16.1 0.00 0.00 0.00 91 1014.6
20260506190015 7 38 1.6 14.5 0.00 0.00 0.00 91 1014.6
20260506184524 7 56 1.6 14.5 0.00 0.00 0.00 91 1014.6
20260506183023 7 342 3.2 22.5 0.00 0.00 0.00 91 1014.5
20260506181508 7 340 3.2 12.9 0.00 0.00 0.00 91 1014.4
20260506180014 7 294 3.2 19.3 0.00 0.00 0.00 92 1014.3
20260506174515 7 344 3.2 16.1 0.00 0.00 0.00 92 1014.1
20260506173024 7 61 1.6 16.1 0.00 0.00 0.00 92 1014.1
20260506171526 7 279 6.4 16.1 0.00 0.00 0.00 91 1014.1
20260506170021 7 5 1.6 12.9 0.00 0.00 0.00 91 1014.2
20260506164518 7 272 4.8 12.9 0.00 0.00 0.00 90 1014.3
20260506163018 8 57 3.2 14.5 0.00 0.00 0.00 89 1014.2
20260506161524 8 142 3.2 14.5 0.00 0.00 0.00 88 1014.0
20260506160037 9 348 4.8 19.3 0.00 0.00 0.00 86 1014.0
20260506154517 9 343 3.2 12.9 0.00 0.00 0.00 84 1014.0
20260506153020 10 288 6.4 19.3 0.00 0.00 0.00 82 1014.0
20260506151522 10 263 6.4 19.3 0.00 0.00 0.00 80 1013.8
20260506150021 10 324 6.4 17.7 0.00 0.00 0.00 78 1013.7
20260506144526 11 304 9.7 19.3 0.00 0.00 0.00 76 1013.7
20260506143024 11 340 4.8 17.7 0.00 0.00 0.00 74 1013.6
20260506141520 11 302 3.2 14.5 0.00 0.00 0.00 71 1013.6
20260506140024 11 325 6.4 20.9 0.00 0.00 0.00 69 1013.6
20260506134525 11 128 1.6 14.5 0.00 0.00 0.00 69 1013.5
20260506133024 11 88 4.8 17.7 0.00 0.00 0.00 69 1013.6
20260506131541 11 305 3.2 14.5 0.00 0.00 0.00 66 1013.5